Tracking 25710 objects as of 5-Jul-2022
HD Live streaming from Space Station
objects crossing your sky now

EDUSAT

Track EDUSAT now!
10-day predictions
EDUSAT is classified as:


NORAD ID: 37788
Int'l Code: 2011-044A
Perigee: 636.6 km
Apogee: 690.5 km
Inclination: 98.4 °
Period: 97.9 minutes
Semi major axis: 7034 km
RCS: 0.1421 m2 (medium)
Launch date: August 17, 2011
Source: Italy (IT)
Launch site: Orenburg, Russia (OREN)

EduSat is a microsatellite built by the University of Rome.
aabbcc
Your satellite tracking list
Your tracking list is empty




NASA's NSSDC Master Catalog

Two Line Element Set (TLE):
1 37788U 11044A   22185.55928237  .00000306  00000-0  57713-4 0  9998
2 37788  98.4339  18.2266 0038287  24.8728  43.0050 14.71457903583880
Source of the keplerian elements: AFSPC